Temperature
22 21 21 20 20 21 20 20 20 19 19 18 18 18 18 18 18 17 17 17 17 17 17 17 17 17 17 17 17 17 17 17 17 17 17 17 17 17 17 17 17 17 16
22 21 21 20 20 20 20 20 20 19 19 19 18 18 18 17 17 17 17 17 17 17 17 17 17 17 17 17 17 17 17 17 17 17 18 18 18 17 18 17 17 17 17
23 22 21 21 20 20 20 20 20 19 19 18 18 18 17 17 17 17 17 17 17 17 17 17 17 17 17 17 17 17 17 17 17 17 18 18 19 19 18 17 17 17 17
24 22 21 21 21 20 20 20 20 19 19 19 18 18 17 17 17 17 17 17 17 17 17 17 17 17 17 17 17 17 17 17 17 17 17 17 18 18 19 18 18 17 17
24 22 22 21 21 20 20 20 20 19 19 18 18 18 17 17 17 17 17 17 17 17 17 17 17 17 17 17 17 17 17 17 17 17 17 17 17 17 18 18 18 18 18
24 22 22 21 21 20 20 19 19 19 19 18 18 18 17 17 17 17 17 17 17 17 17 17 17 17 17 17 17 17 17 17 17 17 17 17 18 18 18 18 18 18 18
24 22 22 21 20 20 20 19 19 19 19 18 18 18 17 17 17 17 17 17 17 17 17 17 17 17 17 17 17 17 17 17 17 17 17 17 17 17 18 18 18 18 18
24 22 22 21 21 20 20 19 19 19 19 18 18 18 17 17 17 17 17 17 17 17 17 17 17 17 17 17 17 17 17 16 16 16 17 17 17 17 17 17 17 18 18
24 23 22 21 21 20 20 19 19 19 19 18 18 18 17 17 17 17 17 17 17 17 17 17 17 17 17 17 17 17 16 16 16 16 16 16 17 16 16 17 17 17 17
24 23 22 21 21 20 20 19 19 19 19 18 18 18 17 17 17 17 17 17 17 17 17 17 17 17 17 17 17 16 16 16 16 16 16 16 16 16 16 16 16 16 17
24 23 22 21 20 20 20 19 19 19 18 18 18 18 17 17 17 17 17 17 17 17 17 17 16 16 16 16 16 16 16 16 16 16 16 16 16 16 16 16 16 16 16
24 23 22 21 20 20 19 19 19 18 18 18 18 18 17 17 17 17 17 17 17 17 17 16 16 16 16 16 16 16 16 16 16 16 16 16 16 16 16 15 15 16 15
23 22 21 21 20 20 19 19 19 18 18 18 18 18 17 17 17 17 17 17 17 16 16 16 16 16 16 16 16 16 16 16 15 15 15 15 15 15 15 15 15 15 15
22 22 21 21 20 19 19 19 18 18 18 17 17 17 17 17 17 17 16 16 16 16 16 16 16 16 16 16 15 15 15 15 15 15 15 15 15 15 15 15 14 14 14
22 21 21 20 20 19 19 19 18 18 18 17 17 17 17 16 16 16 16 16 16 16 16 16 16 15 15 15 15 15 15 15 15 15 15 14 14 14 14 14 14 14 14
22 21 21 20 20 19 19 18 18 18 17 17 17 17 16 16 16 16 16 16 16 16 16 15 15 15 15 15 15 15 15 14 14 14 14 14 14 14 14 14 14 14 13
22 21 20 20 20 19 19 18 18 17 17 17 17 16 16 16 16 16 16 15 15 15 15 15 15 15 15 14 15 14 14 14 14 14 14 13 13 13 13 13 13 13 13
21 20 20 19 19 19 18 18 18 17 17 17 16 16 16 16 15 15 15 15 15 15 15 14 14 14 14 14 14 14 14 14 14 13 13 13 13 13 13 13 12 12 12
19 19 19 19 19 18 18 18 17 17 17 16 16 16 15 15 15 15 15 15 15 14 14 14 14 14 14 14 14 14 13 13 13 13 13 13 13 12 12 12 12 12 11
18 18 18 18 18 18 18 17 17 17 16 16 15 15 15 15 15 15 15 14 14 14 14 13 13 13 13 13 13 13 13 12 12 12 12 12 12 12 12 11 11 11 10
17 17 17 17 17 17 17 17 17 16 16 15 15 15 15 15 15 14 14 14 14 13 13 13 13 12 12 12 12 12 12 12 12 11 11 11 11 11 11 11 10 10 10
17 17 17 17 17 17 17 16 16 16 15 15 15 14 14 14 14 14 13 13 13 13 12 12 12 12 12 12 11 11 11 11 11 10 10 10 10 10 10 10 10 9 9
16 16 16 16 16 16 16 16 15 15 15 14 14 14 14 13 13 13 13 12 12 12 12 11 11 11 11 11 11 11 11 11 10 10 10 10 9 9 9 9 9 8 8
15 15 15 15 15 15 15 15 15 14 14 14 14 13 13 12 12 12 12 12 11 11 11 11 11 10 10 10 10 10 10 10 9 9 9 9 9 8 8 8 8 8 7
15 15 15 14 14 14 14 14 14 14 13 13 13 12 12 12 12 11 11 11 11 11 10 10 10 10 10 9 9 9 9 9 9 8 8 8 8 8 7 7 7 7 7
14 14 14 14 14 14 14 14 13 13 13 12 12 12 11 11 11 10 10 10 10 10 10 10 9 9 9 9 9 8 8 8 8 8 8 8 8 7 7 7 7 6 6
Wind_Speed
11 11 11 11 11 11 11 12 12 12 10 9 9 8 8 8 7 8 8 8 8 8 7 5 5 5 4 4 5 4 5 5 4 3 4 4 5 5 5 6 5 6 6
10 11 11 11 11 11 11 12 12 12 12 9 8 6 6 6 6 6 7 9 9 9 9 8 7 6 4 5 5 5 5 4 5 4 4 4 4 6 6 6 6 7 7
11 11 11 11 11 11 11 11 12 11 11 10 7 5 4 4 5 6 7 9 10 10 9 9 8 6 7 6 6 6 7 5 5 5 4 3 2 2 5 6 6 6 6
10 10 11 11 11 10 10 10 10 10 10 9 9 9 7 7 7 6 6 7 9 9 9 9 8 7 6 5 7 7 6 7 6 5 5 5 4 3 2 5 6 7 7
10 11 11 10 9 9 9 9 9 9 9 9 9 8 8 6 5 5 6 6 7 8 8 8 8 7 7 7 6 5 7 7 7 6 5 5 5 6 5 4 4 5 6
10 10 10 10 9 9 8 8 8 8 8 9 9 9 8 7 6 6 6 6 5 5 7 8 7 7 7 7 7 6 8 7 7 6 6 5 5 5 5 5 6 5 4
10 11 11 11 10 9 9 8 8 8 8 8 8 8 8 8 8 7 7 7 6 6 6 6 6 6 7 7 7 7 7 7 7 7 6 6 6 6 6 6 6 6 5
11 11 11 11 10 10 9 9 8 8 8 7 7 7 7 6 5 7 6 7 6 6 6 7 6 7 7 7 7 6 7 7 7 8 6 6 6 6 6 6 6 6 6
11 11 11 10 10 10 10 9 8 7 7 7 6 6 6 6 5 5 6 6 5 5 6 6 6 6 6 6 6 5 6 6 7 7 7 7 6 6 6 6 7 7 7
11 11 11 10 10 10 9 9 8 7 6 6 5 5 4 4 4 4 4 4 4 5 5 6 6 6 6 6 6 6 6 6 6 6 6 6 7 6 6 7 6 7 7
11 11 11 11 11 10 9 9 8 7 6 6 5 4 4 3 3 3 3 3 3 4 4 5 5 6 6 6 6 6 6 7 6 6 7 7 7 6 6 6 7 7 7
11 11 12 11 10 10 9 8 8 7 6 6 5 5 4 3 3 3 2 2 3 3 4 5 5 6 6 5 6 7 6 6 6 6 6 6 5 6 6 6 7 7 7
11 11 11 11 10 9 8 8 8 7 7 6 6 5 4 3 2 2 2 2 2 3 3 4 4 4 4 5 6 5 5 5 6 5 5 5 5 6 5 6 6 5 6
12 12 11 10 10 9 8 8 7 7 7 7 6 5 4 3 3 2 2 1 2 2 2 3 3 3 3 4 4 4 4 4 4 4 3 3 4 4 5 5 5 5 5
12 12 11 11 10 9 9 8 7 6 6 6 6 5 4 3 3 2 2 2 1 1 1 1 2 2 2 2 2 3 3 3 2 1 1 1 2 3 2 2 2 3 3
12 12 11 11 10 10 9 8 7 7 6 5 5 5 4 4 3 3 3 2 2 1 2 1 1 1 1 3 2 0 1 0 0 0 1 0 1 3 3 4 5 4 2
11 11 11 11 10 10 9 9 8 7 7 6 5 5 4 4 3 3 3 3 3 3 3 3 3 3 4 5 4 2 1 2 1 1 1 1 2 1 2 3 4 6 7
10 10 10 10 10 9 9 9 9 8 7 6 5 4 4 4 4 4 4 4 3 3 3 4 4 4 5 6 5 4 3 3 3 3 2 2 2 3 1 3 5 6 6
9 9 9 10 10 10 10 9 9 8 7 6 5 5 4 4 4 5 5 4 4 4 4 4 5 5 5 7 5 2 4 4 5 4 5 3 3 5 3 5 6 6 5
8 9 10 10 10 10 10 10 9 8 7 6 5 5 5 5 5 5 5 5 5 5 5 5 5 6 6 7 6 3 4 4 4 4 5 8 6 7 5 5 5 6 5
10 10 11 10 10 10 10 9 9 8 7 7 6 6 6 6 6 6 5 6 6 6 6 7 7 7 7 7 8 6 3 3 4 4 5 6 9 10 9 7 6 6 5
10 11 10 10 9 9 10 10 9 8 7 8 7 7 6 6 6 7 6 6 6 6 6 6 6 6 6 7 8 9 6 4 5 5 6 7 10 12 11 9 8 6 4
10 10 11 11 9 8 9 9 9 8 8 8 8 7 7 7 6 6 6 5 5 5 5 5 5 5 5 7 9 9 8 7 6 7 10 9 8 9 10 10 7 5 5
10 10 11 11 9 8 9 9 9 8 9 9 7 7 7 7 7 6 6 6 5 5 5 5 5 5 5 5 4 5 6 7 7 7 9 9 9 8 8 7 6 7 6
9 9 10 10 10 9 9 9 8 9 9 9 8 8 8 8 9 9 8 7 7 5 4 5 5 5 5 5 7 5 5 5 5 6 6 6 6 7 7 7 6 6 6
9 9 10 10 10 10 9 8 8 8 9 8 8 7 7 7 8 9 10 16 13 16 16 13 9 9 10 9 11 12 11 9 5 5 7 7 7 7 6 6 6 6 6
Wind_Direction
183 183 186 188 187 189 192 196 197 194 193 194 198 203 208 209 210 211 207 211 218 217 221 229 207 221 219 229 219 219 210 220 220 225 222 214 216 215 211 219 222 215 217
177 180 184 185 190 191 192 194 198 196 198 198 200 208 213 214 212 213 206 214 216 217 215 224 223 220 219 230 233 230 234 226 214 237 242 231 206 213 214 211 216 221 216
182 182 184 186 191 193 193 194 196 196 199 199 197 196 201 218 214 212 211 214 215 218 223 221 228 227 231 225 230 229 230 235 227 235 254 268 252 211 194 212 220 221 223
184 180 181 184 190 191 190 194 195 196 195 195 199 200 208 214 218 219 215 214 215 219 221 224 228 229 233 225 232 230 231 237 238 226 241 268 304 283 242 210 205 215 225
179 178 179 179 181 184 185 187 189 191 192 196 202 210 220 226 223 217 216 219 217 221 224 224 226 224 230 227 235 235 238 235 242 243 237 240 243 253 265 265 245 221 220
175 173 172 169 171 176 179 179 182 188 190 196 204 212 219 222 218 218 216 219 217 220 223 225 225 223 224 220 223 228 233 243 248 253 251 247 249 249 253 258 256 249 233
170 168 166 167 169 172 173 173 178 185 188 196 206 214 221 224 222 223 220 221 217 216 217 221 221 226 224 221 221 222 238 238 240 243 249 254 258 266 268 267 270 269 257
166 166 165 165 167 166 168 171 178 182 184 193 204 212 220 225 225 226 223 220 221 216 219 219 219 223 227 226 220 226 229 236 238 243 247 254 254 259 261 268 274 270 262
163 164 162 163 161 162 165 169 172 178 183 188 191 200 211 220 224 222 222 220 217 214 216 219 217 221 223 224 223 228 232 235 239 242 237 242 248 251 258 257 260 267 272
161 159 159 159 158 158 158 163 168 172 174 179 185 185 191 202 214 212 206 212 215 218 219 218 218 220 218 216 222 227 232 237 241 249 254 252 253 253 251 253 255 259 264
161 159 158 156 153 152 154 158 160 162 164 169 169 168 169 179 185 191 199 203 210 211 217 219 219 221 220 218 217 226 231 235 240 244 245 247 257 261 259 254 253 254 255
158 157 155 153 153 153 154 157 158 158 158 157 158 158 160 165 172 175 190 200 207 215 218 219 222 225 225 224 224 228 232 235 241 246 251 257 255 253 260 261 257 256 256
157 156 157 157 156 155 155 155 156 154 153 151 151 148 155 156 162 167 182 194 201 212 213 212 219 228 231 231 232 233 238 243 248 250 253 262 266 263 261 261 262 262 257
162 162 160 159 157 155 155 156 155 152 151 149 149 148 150 152 161 171 171 177 194 205 211 211 215 222 229 232 232 229 237 245 246 248 259 277 278 277 274 265 267 269 268
168 166 163 157 158 156 156 155 152 150 150 151 149 147 147 148 151 144 139 144 165 187 186 195 211 213 219 232 232 231 228 237 246 250 302 1 35 17 342 298 294 281 264
171 166 161 158 159 157 157 154 152 151 151 151 147 145 146 145 139 132 126 125 126 118 106 99 106 84 37 60 61 273 228 220 279 318 321 16 57 78 80 55 37 18 321
169 166 163 161 159 159 157 156 151 147 146 145 141 141 143 137 132 130 122 114 107 99 93 84 81 75 55 60 71 75 93 91 75 50 13 354 18 30 78 92 90 60 42
164 163 161 158 155 151 148 145 141 141 143 141 138 138 132 123 119 113 105 101 98 95 90 80 77 76 60 56 62 75 95 86 72 56 44 43 31 27 46 98 88 72 53
155 154 156 151 145 143 140 136 135 136 134 131 129 126 122 116 110 103 97 94 95 92 88 83 81 82 65 50 47 72 101 90 76 61 46 49 61 36 62 107 103 93 85
140 142 140 138 137 137 138 136 133 130 128 124 120 117 116 116 110 103 100 96 95 91 87 79 73 77 73 53 43 48 100 97 95 83 68 55 54 49 55 100 102 97 87
132 134 133 130 129 131 133 131 126 122 119 119 116 110 110 109 106 99 96 98 97 92 87 84 75 69 63 59 51 47 84 92 92 82 73 63 62 62 56 65 77 74 79
129 131 128 122 122 128 129 124 119 115 113 112 108 104 101 101 103 101 95 95 99 99 95 91 83 71 65 58 58 59 57 54 87 83 83 79 77 72 64 68 67 67 72
125 127 126 120 117 119 124 123 119 118 115 112 108 105 101 95 97 99 98 95 90 92 95 95 89 80 76 76 74 72 67 62 82 83 82 86 91 96 81 72 65 68 75
125 126 125 120 113 111 111 113 116 118 117 114 110 106 103 98 89 80 77 79 78 86 90 91 91 87 80 71 76 90 96 102 100 99 106 105 89 89 87 89 77 69 66
124 124 123 120 115 111 108 110 114 118 117 114 110 106 101 97 88 75 60 67 58 55 75 86 85 88 84 57 46 70 84 87 91 104 99 91 87 83 80 76 71 68 69
122 121 121 120 118 115 111 108 112 120 121 117 113 111 110 109 109 103 86 61 64 60 58 56 69 76 77 82 75 72 71 71 74 92 89 82 77 75 75 74 72 65 57
Height
1538 1540 1542 1544 1546 1548 1549 1551 1553 1555 1557 1559 1561 1563 1565 1567 1569 1570 1572 1573 1575 1577 1578 1580 1581 1582 1584 1585 1586 1587 1587 1588 1589 1590 1590 1590 1590 1590 1590 1591 1591 1592 1592
1536 1538 1540 1542 1544 1545 1547 1549 1551 1553 1555 1557 1559 1561 1563 1565 1567 1568 1569 1571 1573 1574 1576 1577 1579 1581 1582 1583 1584 1585 1586 1587 1588 1588 1588 1588 1589 1588 1589 1589 1589 1590 1590
1534 1536 1538 1540 1541 1543 1545 1547 1549 1551 1553 1555 1557 1559 1560 1562 1564 1565 1567 1568 1570 1572 1574 1575 1577 1578 1580 1581 1581 1583 1584 1585 1586 1587 1588 1587 1586 1586 1587 1587 1587 1588 1588
1531 1534 1536 1537 1539 1541 1543 1545 1547 1549 1550 1552 1554 1556 1558 1559 1561 1563 1564 1566 1567 1569 1571 1573 1574 1576 1577 1578 1579 1581 1582 1583 1584 1585 1585 1586 1585 1585 1585 1585 1585 1585 1585
1529 1531 1534 1535 1538 1540 1541 1543 1545 1546 1548 1550 1552 1554 1555 1557 1559 1560 1561 1562 1564 1566 1568 1569 1571 1572 1574 1576 1577 1578 1579 1580 1582 1583 1583 1583 1583 1584 1584 1583 1584 1584 1584
1527 1530 1532 1534 1536 1539 1540 1542 1543 1545 1546 1548 1550 1551 1553 1554 1556 1557 1558 1560 1561 1563 1565 1566 1568 1569 1571 1572 1573 1575 1576 1577 1578 1579 1580 1581 1581 1581 1581 1581 1581 1581 1581
1525 1528 1531 1533 1535 1537 1539 1540 1541 1543 1545 1546 1548 1549 1551 1552 1553 1554 1556 1557 1558 1560 1561 1563 1564 1566 1567 1569 1570 1571 1573 1574 1575 1576 1577 1578 1578 1579 1579 1579 1578 1578 1578
1523 1526 1529 1531 1534 1536 1538 1539 1540 1542 1544 1545 1546 1548 1549 1550 1551 1552 1553 1554 1556 1557 1558 1560 1561 1562 1564 1566 1567 1568 1569 1570 1571 1573 1573 1574 1575 1576 1576 1576 1576 1576 1575
1522 1525 1528 1531 1533 1535 1537 1539 1540 1541 1543 1544 1545 1546 1547 1548 1549 1550 1550 1552 1553 1555 1556 1557 1558 1560 1561 1562 1564 1565 1566 1568 1568 1569 1570 1570 1571 1572 1572 1573 1573 1574 1572
1521 1525 1528 1530 1532 1535 1536 1538 1539 1541 1542 1543 1545 1546 1546 1547 1547 1548 1549 1550 1551 1553 1554 1555 1556 1557 1558 1560 1561 1562 1563 1564 1565 1566 1566 1567 1568 1568 1568 1569 1569 1569 1569
1520 1524 1527 1529 1532 1534 1536 1537 1539 1540 1541 1542 1544 1544 1545 1546 1546 1547 1548 1548 1550 1551 1552 1553 1554 1555 1556 1557 1558 1559 1560 1561 1562 1562 1563 1563 1563 1564 1565 1565 1565 1565 1565
1520 1523 1526 1529 1531 1533 1535 1537 1538 1539 1541 1542 1542 1543 1544 1545 1545 1546 1547 1547 1548 1549 1550 1551 1551 1552 1553 1554 1555 1556 1557 1558 1559 1559 1559 1560 1560 1559 1560 1560 1560 1560 1560
1520 1523 1526 1528 1530 1533 1535 1536 1538 1539 1540 1541 1542 1542 1544 1544 1545 1545 1546 1547 1547 1548 1548 1549 1549 1550 1551 1551 1552 1553 1554 1555 1555 1556 1556 1556 1556 1555 1555 1555 1556 1556 1556
1518 1522 1524 1527 1530 1532 1534 1536 1537 1539 1540 1540 1541 1542 1543 1544 1544 1545 1545 1545 1546 1546 1547 1547 1547 1548 1548 1549 1549 1550 1551 1551 1552 1552 1552 1552 1552 1552 1551 1551 1551 1552 1552
1517 1520 1523 1526 1528 1531 1533 1535 1536 1538 1539 1540 1540 1541 1542 1543 1543 1544 1544 1544 1545 1545 1545 1545 1545 1546 1546 1546 1547 1547 1548 1549 1549 1549 1549 1549 1549 1548 1548 1548 1548 1548 1548
1516 1519 1522 1525 1527 1529 1531 1533 1535 1537 1538 1539 1540 1540 1541 1542 1542 1543 1543 1543 1544 1544 1544 1544 1544 1544 1544 1545 1545 1546 1546 1546 1547 1547 1547 1547 1546 1546 1546 1546 1546 1546 1546
1514 1517 1520 1523 1526 1528 1530 1532 1534 1536 1537 1538 1539 1540 1540 1541 1541 1542 1542 1542 1542 1542 1543 1543 1542 1542 1543 1543 1543 1544 1544 1545 1545 1545 1545 1545 1545 1544 1544 1544 1544 1544 1544
1513 1516 1519 1521 1524 1527 1529 1531 1533 1534 1536 1538 1538 1539 1540 1540 1541 1541 1541 1541 1541 1541 1541 1541 1541 1541 1541 1542 1542 1543 1543 1543 1543 1543 1543 1543 1542 1542 1542 1543 1542 1542 1542
1511 1514 1517 1520 1523 1525 1528 1530 1532 1533 1535 1537 1538 1538 1539 1540 1540 1540 1540 1540 1541 1540 1540 1540 1540 1541 1541 1541 1541 1542 1542 1542 1542 1542 1541 1542 1541 1541 1541 1541 1541 1541 1541
1510 1513 1516 1519 1521 1524 1527 1529 1531 1532 1534 1536 1537 1538 1539 1539 1540 1540 1540 1540 1540 1540 1540 1540 1540 1540 1540 1541 1541 1541 1541 1541 1541 1541 1541 1540 1540 1540 1540 1540 1540 1540 1541
1510 1512 1515 1518 1521 1523 1526 1528 1530 1532 1534 1535 1536 1537 1538 1539 1539 1539 1539 1539 1539 1539 1540 1540 1540 1540 1540 1540 1540 1540 1540 1540 1540 1540 1540 1540 1540 1540 1540 1540 1540 1540 1541
1510 1513 1515 1518 1520 1523 1525 1527 1529 1531 1532 1534 1535 1536 1537 1538 1539 1539 1539 1539 1539 1539 1540 1540 1540 1540 1540 1540 1540 1540 1540 1540 1540 1540 1540 1540 1541 1541 1540 1540 1540 1541 1541
1511 1514 1516 1518 1520 1523 1525 1527 1529 1530 1532 1533 1535 1536 1537 1538 1539 1539 1539 1539 1540 1540 1540 1540 1541 1541 1541 1541 1540 1540 1540 1539 1539 1540 1540 1541 1541 1541 1541 1541 1541 1541 1542
1512 1514 1516 1518 1520 1523 1525 1527 1528 1530 1531 1533 1534 1536 1537 1538 1538 1538 1539 1539 1540 1540 1540 1541 1541 1541 1541 1541 1541 1541 1541 1541 1541 1541 1541 1542 1542 1542 1542 1542 1543 1543 1543
1512 1514 1516 1518 1520 1523 1525 1527 1528 1530 1531 1533 1534 1535 1537 1537 1538 1538 1539 1540 1540 1540 1541 1541 1542 1542 1542 1542 1541 1542 1542 1542 1542 1543 1544 1544 1545 1545 1545 1545 1545 1545 1545
1512 1514 1517 1519 1521 1523 1524 1526 1528 1530 1531 1533 1534 1535 1537 1538 1539 1540 1540 1541 1541 1542 1542 1542 1543 1543 1543 1543 1543 1543 1543 1543 1544 1545 1546 1546 1547 1547 1547 1547 1547 1547 1547